Location: Atbuku
(36.4936°N, 30.4362°E)
Time: 19:12:06
(UTC+00:00)

Cosmos 1607 - Pass Details

Date: 22 March 2026
Orbit: 919 x 983 km, 65.0° (Epoch: 21 April)

Event Time Altitude Azimuth Distance (km) Brightness Sun altitude
Rises 16:34:45 0° 318° (NW) 3,656 7.8 -5.5°
Reaches altitude 10° 16:37:37 10° 308° (NW) 2,715 7.4 -6.0°
Maximum altitude 16:42:57 29° 251° (WSW) 1,703 6.1 -7.1°
Drops below altitude 10° 16:48:19 10° 193° (SSW) 2,723 6.4 -8.2°
Sets 16:51:13 0° 183° (S) 3,669 7.0 -8.8°
